Regional Weather Roundup
Issued by NWS San Diego, CA

Home | Current Version | Previous Version | Text Only | Print | Product List | Glossary On
Versions: 1 2 3 4 5 6 7 8 9 10 11 12 13 14 15 16 17 18 19 20 21 22 23 24 25 26 27 28 29 30 31 32 33 34 35 36 37 38 39 40 41 42 43 44 45 46 47 48 49 50
000
ASUS46 KSGX 031211
RWRSGX

SAN DIEGO HOURLY WEATHER ROUNDUP
NATIONAL WEATHER SERVICE SAN DIEGO CA
500 AM PDT TUE MAY 03 2016

NOTE: "FAIR" INDICATES FEW OR NO CLOUDS BELOW 12,000 FEET WITH NO
SIGNIFICANT WEATHER AND/OR OBSTRUCTIONS TO VISIBILITY.

CAZ042-043-060-061-PZZ750-775-031300-

GREATER SAN DIEGO AREA

CITY           SKY/WX    TMP DP  RH WIND       PRES   REMARKS
LINDBERGH FLD  PTCLDY    60  55  83 N5        29.97S
POINT LOMA       N/A     57  57 100 NW3         N/A
NATIONAL CITY    N/A     59  55  86 CALM      29.97S
CHULA VISTA      N/A     56  54  93 E1        29.88S
IMPERIAL BEACH CLOUDY    61  55  81 CALM      29.96S
BROWN FIELD    CLOUDY    54  53  97 CALM      29.95S
MIRAMAR MCAS   PTCLDY    61  55  81 N5        29.96S
MONTGOMERY FLD CLOUDY    59  54  83 N5        29.96S

$$

NORTH SAN DIEGO COUNTY

CITY           SKY/WX    TMP DP  RH WIND       PRES   REMARKS
CAMP PENDLETON MOCLDY    48  47  96 CALM      29.96S
OCEANSIDE AP   CLOUDY    54  50  86 CALM      29.95F
OCEANSIDE HBR    N/A     57  54  91 NE3       29.98S
VISTA            N/A     56  50  82 CALM      29.94F
CARLSBAD       CLOUDY    59  55  87 N3        29.95S
DEL MAR          N/A     58  56  92 CALM      29.98F
LA JOLLA SCRIP   N/A     59  56  89 N1        29.96S
FALLBROOK        N/A     53  53 100 CALM      29.95S
SAN MARCOS       N/A     56  48  75 CALM      29.94S
POWAY            N/A     51  48  89 CALM      29.97F

$$

EAST SAN DIEGO COUNTY

CITY           SKY/WX    TMP DP  RH WIND       PRES   REMARKS
RAMONA         MOCLDY    44  42  93 CALM      29.96S FOG
SANTEE LAKES     N/A     53  51  94 CALM      29.95S
LA MESA          N/A     55  53  92 CALM      29.89S
JAMUL            N/A     51  50  95 CALM      29.95S
DESCANSO N       N/A     55  39  56 CALM      29.83S
MT. LAGUNA OBS   N/A     50  31  48 N10       29.68
CAMPO            N/A     45  38  76 NE5       29.96S

$$

ORANGE COUNTY AND THE LOS ANGELES BASIN

CITY           SKY/WX    TMP DP  RH WIND       PRES   REMARKS
JOHN WAYNE AP  MOCLDY    58  55  90 CALM      29.95S
LAKE FOREST FR   N/A     54  49  83 CALM      29.84S
HUNTINGTON BCH   N/A     55  54  95 CALM      29.97S
LOS ALAMITOS   FAIR      56  54  95 CALM      29.95S
FULLERTON      CLEAR     59  54  83 CALM      29.94S
LONG BEACH     CLEAR     59  55  87 CALM      29.95S
L.A. AP        CLEAR     58  54  86 W6        29.95S
L.A. DOWNTOWN  CLEAR     58  53  84 CALM      29.95R

$$

THE INLAND EMPIRE

CITY           SKY/WX    TMP DP  RH WIND       PRES   REMARKS
CORONA         CLEAR     49  47  93 CALM      29.95F
CHINO          CLEAR     56  51  84 CALM      29.96S
ONTARIO        CLEAR     59  51  75 CALM      29.94F
RIVERSIDE AP   CLEAR     57  51  80 NE3       29.95S
MORENO VALLEY    N/A     58  51  78 CALM      28.07F
MARCH ARB      CLEAR     52  47  81 CALM      29.96S
HORSETHIEF CYN   N/A     56  41  58 W1        29.97S
PERRIS           N/A     56  52  85 CALM      29.95F
HEMET EAST       N/A     58  39  50 CALM      29.84F
FRENCH VALLEY  FAIR      55  50  82 CALM      29.96S
TEMECULA         N/A     55  53  93 SE1       29.94S

$$

SAN BERNARDINO AND RIVERSIDE COUNTY MOUNTAINS

CITY           SKY/WX    TMP DP  RH WIND       PRES   REMARKS
BIG BEAR AP    CLEAR     30  28  93 CALM      30.18S
ANGELUS OAKS     N/A     44  31  60 CALM      29.94S
PINE COVE        N/A     51  32  48 CALM      29.96S

$$

SOUTHERN DESERT INCLUDING THE COACHELLA VALLEY

CITY           SKY/WX    TMP DP  RH WIND       PRES   REMARKS
PALM SPRINGS   CLEAR     70  43  37 NW5       29.92S
THOUSAND PALMS   N/A     71  38  29 W5        29.88S
PALM DESERT      N/A     68  46  45 CALM        N/A
THERMAL        CLEAR     68  42  38 N7        29.86S
BLYTHE         CLEAR     68  37  32 CALM      29.90R
IMPERIAL AP    CLEAR     63  43  48 W6        29.86S
EL CENTRO NAS  CLEAR    N/A N/A N/A W6        29.88S
YUMA AZ        CLEAR     72  40  31 N7        29.86

$$

UPPER DESERT

CITY           SKY/WX    TMP DP  RH WIND       PRES   REMARKS
VICTORVILLE AP CLEAR     48  34  57 CALM      30.03S
HESPERIA         N/A     51  37  58 W5        30.08S
PALMDALE       CLEAR     52  39  61 SW6       30.03S
LANCASTER      CLEAR     51  37  58 CALM      30.03R
EDWARDS AFB    CLEAR     49  33  52 S2        30.01S
DAGGETT        CLEAR     56  35  45 NW3       30.00S
29 PALMS N     CLEAR     57  31  37 NW5       30.06S
NEEDLES        CLEAR     71  38  29 N7        29.94S

$$

REGIONAL REPORTS

CITY           SKY/WX    TMP DP  RH WIND       PRES   REMARKS
SANTA BARBARA  MOCLDY    55  54  96 SE3       29.94S
SANDBERG       CLEAR     57  37  47 NE8       30.09S
LAS VEGAS NV   CLEAR     62  42  47 S3        30.02R
PHOENIX AZ     CLEAR     65  44  46 SW5       29.90R
TIJUANA        CLEAR     55  50  82 CALM      29.97F
ENSENADA NW      N/A     59  32  36 W1        29.93S

$$

OFFSHORE ISLANDS

CITY           SKY/WX    TMP DP  RH WIND       PRES   REMARKS
CATALINA ARPT  CLEAR     61  42  49 W3        29.97F
SAN NICOLAS IS CLEAR    N/A N/A N/A E5        29.95S

$$

MARINE AND OFFSHORE BUOY REPORTS

STATION/POSITION SKY/WX   TEMP    WIND        PRES    SWELL
                          AIR SEA DIR/SP/G            HT/PER/DIR
                          (F)     (DEG/KT/KT) (MB)    (FT/S/D)
TANNER BANKS               58 60  290/ 10/ 14 1014.7F   7/240/14
S CLEMENTE BASIN           58 61  300/  8/ 10 1014.2F   3/190/14
SAN NICOLAS IS.               59                N/A     5/250/13
SO. S. ROSA ISLA           55 56  290/ 10/ 12 1014.4R   5/270/15
W. S. BARBARA CH           54 56  320/ 12/ 14 1013.4S   5/300/15
M. S. BARBARA CH           55 56  220/  8/ 10 1014.4F
S. MONICA BASIN            58 61  340/  4/  8 1014.1F   3/210/13
S PEDRO CHANNEL               61                N/A     2/170/14
OCEANSIDE OFFSHR              64                N/A     3/190/14
TORREY PINES OTR              64                N/A     3/200/14
LA JOLLA 1                 61 65   20/  5/  5 1014.2F
SAN DIEGO BAY                 67              1014.6S
POINT LOMA SOUTH              63                N/A     3/190/14

$$




USA.gov is the U.S. government's official web portal to all federal, state and local government web resources and services.